EW5421 Weather Reports


time (UTC)temp
C
wind
direction
speed
KPH
gust
KPH
rain 1hr
cm
rain 24hr
cm
rain mn
cm
humidity
%
barometer
mb
20260906214553 28 190 11.3 24.1 0.00 0.00 0.00 35 997.9
20260906213051 28 141 8.0 19.3 0.00 0.00 0.00 34 998.1
20260906211554 28 137 9.7 22.5 0.00 0.00 0.00 36 998.3
20260906210049 28 160 8.0 19.3 0.00 0.00 0.00 35 998.6
20260906204546 28 131 12.9 25.7 0.00 0.00 0.00 37 999.0
20260906203045 27 214 11.3 22.5 0.00 0.00 0.00 37 999.1
20260906201548 27 129 4.8 16.1 0.00 0.00 0.00 38 999.2
20260906200039 27 121 9.7 17.7 0.00 0.00 0.00 39 999.3
20260906194537 27 150 4.8 16.1 0.00 0.00 0.00 38 999.4
20260906193035 27 226 8.0 17.7 0.00 0.00 0.00 36 999.6
20260906191533 27 61 6.4 22.5 0.00 0.00 0.00 36 999.7
20260906190032 27 80 3.2 19.3 0.00 0.00 0.00 36 1000.0
20260906184528 27 233 6.4 16.1 0.00 0.00 0.00 37 1000.3
20260906183043 27 123 9.7 16.1 0.00 0.00 0.00 36 1000.7
20260906181524 26 217 8.0 17.7 0.00 0.00 0.00 37 1001.0
20260906180022 27 231 8.0 17.7 0.00 0.00 0.00 37 1001.3
20260906174518 26 134 1.6 17.7 0.00 0.00 0.00 38 1001.5
20260906173017 26 5 4.8 12.9 0.00 0.00 0.00 36 1001.6
20260906171520 26 346 3.2 17.7 0.00 0.00 0.00 39 1001.6
20260906170015 25 335 3.2 11.3 0.00 0.00 0.00 37 1001.8
20260906164513 25 129 1.6 11.3 0.00 0.00 0.00 38 1001.8
20260906163012 25 37 1.6 16.1 0.00 0.00 0.00 41 1001.9
20260906161510 25 65 3.2 12.9 0.00 0.00 0.00 37 1001.9
20260906160012 25 117 3.2 9.7 0.00 0.00 0.00 38 1001.9
20260906154504 23 67 1.6 11.3 0.00 0.00 0.00 39 1001.9
20260906153001 22 30 6.4 11.3 0.00 0.00 0.00 41 1001.8
20260906151558 22 42 3.2 9.7 0.00 0.00 0.00 45 1001.9
20260906150056 21 19 6.4 9.7 0.00 0.00 0.00 46 1002.0
20260906144557 20 58 4.8 9.7 0.00 0.00 0.00 50 1002.0
20260906143046 20 23 4.8 11.3 0.00 0.00 0.00 52 1002.0
20260906141542 18 345 3.2 11.3 0.00 0.00 0.00 56 1002.0
20260906140042 17 21 4.8 12.9 0.00 0.00 0.00 58 1002.1
20260906134541 16 10 4.8 9.7 0.00 0.00 0.00 60 1002.0
20260906133034 16 25 4.8 9.7 0.00 0.00 0.00 60 1002.0
20260906131535 15 10 4.8 11.3 0.00 0.00 0.00 60 1001.9
20260906130032 16 29 4.8 11.3 0.00 0.00 0.00 59 1001.9
20260906124530 15 6 4.8 11.3 0.00 0.00 0.00 59 1001.9
20260906123035 16 333 4.8 14.5 0.00 0.00 0.00 58 1001.9
20260906121539 16 355 3.2 9.7 0.00 0.00 0.00 57 1001.8
20260906120028 16 10 1.6 8.0 0.00 0.00 0.00 58 1001.9
20260906114531 16 20 1.6 9.7 0.00 0.00 0.00 58 1001.6
20260906113041 15 18 1.6 9.7 0.00 0.00 0.00 59 1001.6
20260906111525 15 8 3.2 4.8 0.00 0.00 0.00 60 1001.5
20260906110025 15 13 3.2 4.8 0.00 0.00 0.00 61 1001.4
20260906104529 15 13 3.2 6.4 0.00 0.00 0.00 61 1001.3
20260906103021 15 20 1.6 4.8 0.00 0.00 0.00 61 1001.4
20260906101521 15 33 3.2 6.4 0.00 0.00 0.00 62 1001.5
20260906100021 15 9 1.6 6.4 0.00 0.00 0.00 62 1001.6
20260906094519 15 21 3.2 4.8 0.00 0.00 0.00 63 1001.7
20260906093018 15 35 1.6 4.8 0.00 0.00 0.00 63 1001.6
20260906091529 15 45 1.6 3.2 0.00 0.00 0.00 66 1001.6
20260906090015 16 6 1.6 6.4 0.00 0.00 0.00 66 1001.5
20260906084513 16 13 0.0 6.4 0.00 0.00 0.00 67 1001.4
20260906083014 15 15 0.0 3.2 0.00 0.00 0.00 73 1001.5
20260906081513 15 32 0.0 1.6 0.00 0.00 0.00 80 1001.4
20260906080041 14 32 1.6 3.2 0.00 0.00 0.00 80 1001.5
20260906074510 15 32 0.0 1.6 0.00 0.00 0.00 78 1001.6
20260906073004 15 48 0.0 0.0 0.00 0.00 0.00 76 1001.6
20260906071506 15 47 0.0 1.6 0.00 0.00 0.00 76 1001.5
20260906070003 16 48 0.0 1.6 0.00 0.00 0.00 73 1001.6
20260906064503 17 61 0.0 1.6 0.00 0.00 0.00 72 1001.8
20260906063059 16 1 0.0 3.2 0.00 0.00 0.00 74 1001.7
20260906061607 16 76 0.0 3.2 0.00 0.00 0.00 73 1001.6
20260906060052 15 69 0.0 1.6 0.00 0.00 0.00 78 1001.4
20260906054551 12 73 0.0 3.2 0.00 0.00 0.00 87 1001.4
20260906053050 12 44 0.0 1.6 0.00 0.00 0.00 84 1001.4
20260906051600 13 44 0.0 3.2 0.00 0.00 0.00 82 1001.4
20260906050054 13 115 0.0 1.6 0.00 0.00 0.00 83 1001.4
20260906044551 15 115 0.0 0.0 0.00 0.00 0.00 78 1001.3
20260906043049 16 115 0.0 0.0 0.00 0.00 0.00 74 1001.4
20260906041548 17 124 0.0 1.6 0.00 0.00 0.00 71 1001.4
20260906040048 18 124 0.0 4.8 0.00 0.00 0.00 67 1001.4
20260906034546 18 30 0.0 3.2 0.00 0.00 0.00 68 1001.2
20260906033051 19 4 0.0 6.4 0.00 0.00 0.00 66 1001.1
20260906031558 19 10 1.6 19.3 0.00 0.00 0.00 66 1001.1
20260906030045 20 78 1.6 8.0 0.00 0.00 0.00 66 1001.0
20260906024645 20 123 0.0 11.3 0.00 0.00 0.00 65 1000.7
20260906023043 20 27 1.6 9.7 0.00 0.00 0.00 64 1000.8
20260906021543 20 68 3.2 12.9 0.00 0.00 0.00 62 1000.6
20260906020042 17 27 0.0 0.0 0.00 0.00 0.00 52 1000.1
20260906014541 18 27 0.0 1.6 0.00 0.00 0.00 49 999.9
20260906013040 20 27 0.0 3.2 0.00 0.00 0.00 44 999.7
20260906011542 22 30 0.0 3.2 0.00 0.00 0.00 38 999.8
20260906010039 24 338 0.0 3.2 0.00 0.00 0.00 34 999.8
20260906004538 25 314 0.0 4.8 0.00 0.00 0.00 32 1000.0
20260906003038 25 343 0.0 4.8 0.00 0.00 0.00 32 1000.2
20260906001538 25 28 0.0 1.6 0.00 0.00 0.00 34 999.9
20260906000139 25 28 0.0 6.4 0.00 0.00 0.00 31 999.9
20260905234535 26 49 1.6 4.8 0.00 0.00 0.00 29 999.7
20260905233042 26 35 4.8 6.4 0.00 0.00 0.00 28 999.7
20260905231534 26 26 0.0 6.4 0.00 0.00 0.00 31 999.6
20260905230038 26 282 1.6 6.4 0.00 0.00 0.00 28 999.7
20260905224545 26 19 1.6 8.0 0.00 0.00 0.00 31 999.7
20260905223030 26 354 1.6 3.2 0.00 0.00 0.00 33 1000.0
20260905221528 26 136 0.0 1.6 0.00 0.00 0.00 31 1000.0
20260905220027 25 70 0.0 3.2 0.00 0.00 0.00 32 1000.0